Terug naar catalogus

SL-12 DEB

LostHEO
NORAD 41682·DEBRIS·🇷🇺 Russia

Gelanceerd Oct 26, 2007 vanaf Baikonur Cosmodrome

Loading…

Volgende Passages (komende 24 uur)

TLE

VerouderdSource: Space-Track

Epoch: Feb 11, 2018, 23:57 UTC

1 41682U 07052P   18042.99808065 -.00022716 +00000-0 -10711+0 0  9994
2 41682 065.2632 329.3644 5698839 008.4633 357.2628 04.20895337053372

Volg SL-12 DEB in realtime met AllMySat

Download on the App Store